Regional Weather Roundup
Issued by NWS

Home | Current Version | Previous Version | Graphics & Text | Print | Product List | Glossary Off
Versions: 1 2 3 4 5 6 7 8 9 10 11 12 13 14 15 16 17 18 19 20 21 22 23 24 25 26 27 28 29 30 31 32 33 34 35 36 37 38 39 40 41 42 43 44 45 46 47 48 49 50

000
ASUS43 KDMX 301007
RWRIA

WEATHER ROUNDUP FOR IOWA
NATIONAL WEATHER SERVICE DES MOINES IA
500 AM CDT TUE JUN 30 2015

NOTE: "FAIR" INDICATES FEW OR NO CLOUDS BELOW 12,000 FEET WITH NO
SIGNIFICANT WEATHER AND/OR OBSTRUCTIONS TO VISIBILITY.

* - THESE STATIONS ARE NOT NWS STATIONS...THUS NOT UNDER NWS
QUALITY CONTROL.  THEY ALSO DO NOT REPORT WEATHER SUCH
AS PRECIPITATION OR FOG.

IAZ001>003-012>014-020>022-031>034-043>046-301100-
   NORTHWEST IOWA

CITY           SKY/WX    TMP DP  RH WIND       PRES   REMARKS
CARROLL *      CLOUDY    64  63  94 W6        29.89S
CHEROKEE *     CLOUDY    61  61 100 CALM      29.91R FOG
DENISON *      CLOUDY    63  61  94 CALM      29.89R FOG
LE MARS *        N/A     61  59  94 CALM      29.93R FOG
ORANGE CITY *  CLEAR     61  57  88 CALM      29.92R
SHELDON *      CLOUDY    59  59 100 CALM      29.91R FOG
SIOUX CITY     PTCLDY    63  59  87 CALM      29.91R FOG
SPENCER        CLOUDY    59  58  96 NW6       29.90S FOG
STORM LAKE *   CLEAR     63  61  94 N7        29.92R
$$

IAZ055>058-069>071-079>083-090>094-301100-
   SOUTHWEST IOWA

CITY           SKY/WX    TMP DP  RH WIND       PRES   REMARKS
ATLANTIC *     CLOUDY    63  63 100 CALM      29.90S
AUDUBON *      CLEAR     64  61  88 NW3       29.91S
CLARINDA *     PTCLDY    63  63 100 S3        29.92S
COUNCIL BLFS * CLOUDY    68  64  88 SW6       29.92R
CRESTON *      PTCLDY    64  61  88 W7        29.90S
HARLAN  *      CLEAR     63  63 100 S5        29.94R
LAMONI         PTCLDY    67  62  84 W8        29.90R
RED OAK *      CLOUDY    63  63 100 CALM      29.91R
SHENANDOAH *   CLOUDY    64  63  94 S5        29.91F
$$

IAZ047>049-059>061-072>074-084-301100-
   CENTRAL IOWA

CITY           SKY/WX    TMP DP  RH WIND       PRES   REMARKS
AMES           PTCLDY    66  61  84 NW7       29.86R
ANKENY *       CLEAR     66  64  94 W7        29.86R
CHARITON *     CLOUDY    66  63  88 W7        29.87S
DES MOINES     CLOUDY    67  61  81 NW5       29.86S
GRINNELL*      CLEAR     64  63  94 W7        29.85R
KNOXVILLE *    CLEAR     66  63  88 W7        29.85R
MARSHALLTOWN   CLEAR     63  61  93 W7        29.84R FOG
PELLA *        CLEAR     66  66 100 W5        29.86R
PERRY *          N/A     64  63  94 W5        29.88R FOG
$$

IAZ004>006-015-016-023>025-035-036-301100-
   NORTH CENTRAL IOWA

CITY           SKY/WX    TMP DP  RH WIND       PRES   REMARKS
ALGONA *       CLOUDY    64  63  94 NW7       29.89R
CLARION *      CLEAR     63  61  94 NW6       29.87R FOG
ESTHERVILLE    PTCLDY    61  61 100 NW6       29.89R
FORT DODGE *   CLEAR     63  59  88 NW6       29.89R
MASON CITY     CLEAR     64  63  96 NW9       29.87R FOG
FOREST CITY *  CLEAR     63  63 100 NW7       29.87R
IOWA FALLS *     N/A     63  61  94 NW6       29.87R FOG
$$

IAZ007>011-017>019-026>030-037>042-050>054-066-301100-
   NORTHEAST IOWA

CITY           SKY/WX    TMP DP  RH WIND       PRES   REMARKS
CEDAR RAPIDS   CLEAR     60  60 100 CALM      29.82R
CHARLES CITY * CLEAR     59  59 100 CALM      29.85R
CLINTON *      CLEAR     61  57  88 NW5       29.84R
DECORAH *        N/A    N/A N/A N/A MISG        N/A
DUBUQUE        CLEAR     60  56  86 NW8       29.83R
MONTICELLO *   CLOUDY    61 N/A N/A CALM      29.83R FOG
OELWEIN *        N/A    N/A N/A N/A MISG        N/A
WATERLOO       CLEAR     61  60  97 CALM      29.83R FOG
$$

IAZ064-065-067-068-078-301100-
   EAST CENTRAL IOWA

CITY           SKY/WX    TMP DP  RH WIND       PRES   REMARKS
DAVENPORT      PTCLDY    61  59  93 W5        29.82R FOG
IOWA CITY      CLEAR     63  60  90 CALM      29.83R
MT. PLEASANT *   N/A     64  63  94 SW5       29.84S FOG
MUSCATINE *    CLEAR     63  61  94 CALM      29.82S
QUAD CITIES    CLEAR     62  60  93 CALM      29.81R
$$

IAZ062-063-075>077-085>089-095>099-301100-
   SOUTHEAST IOWA

CITY           SKY/WX    TMP DP  RH WIND       PRES   REMARKS
BURLINGTON     CLEAR     63  63 100 W5        29.83S FOG
FAIRFIELD *    CLEAR     64  63  94 W5        29.84S
FORT MADISON * CLEAR     66  66 100 SW3       29.84S
KEOKUK *       CLEAR     66  64  94 SW5       29.84R
OSKALOOSA *      N/A     63  61  94 CALM      29.85S
CENTERVILLE *  CLEAR     66  63  88 W8        29.89R
OTTUMWA        CLEAR     65  63  93 W7        29.83S
WASHINGTON *   CLEAR     64  64 100 W8        29.84S
$$

ABBREVIATIONS USED IN REMARKS
   TC - TEMPERATURES IN CELSIUS
  WCI - WIND CHILL INDEX
   HX - HEAT INDEX
  VSB - VISIBILITY
$$



USA.gov is the U.S. government's official web portal to all federal, state and local government web resources and services.